Weather in Zgierz

Poland     51°51′21″N   19°24′19″E
temp.,
°C
wind,
m/s
gust,
m/s
humid.,
%
clouds,
%
prec.,
mm/h
press.,
hPa
HPBL,
m
7 may, fri
fri723:00+7w2478100 0.3 1008227
02:00+6s3993100 1.0 1006495
05:00+6ssw4695100 1.5 1004716
08:00+6ssw3796100 3.1 1004581
11:00+7wnw249398 0.4 1005478
14:00+6n3694100 0.6 1005711
17:00+7w688997 0.3 1007876
20:00+4wnw61296100 2.9 1010932
8 may, sat
sat823:00+4wnw5119431 0.1 1013639
02:00+2w6129783 0.1 1015474
05:00+3wnw61189100 0.0 1016773
08:00+5wnw598341 0.0 1018821
11:00+9w695787 0.3 10191812
14:00+10w6949100 0.4 10192103
17:00+10w685687 0.3 10191489
20:00+7w22672 0.4 102015
9 may, sun
sun923:00+6s2370100 0.0 102143
02:00+4s377461 0.0 1021119
05:00+4sse497688 0.0 1021168
08:00+9s510665 0.0 1020336
11:00+15s7105189 0.0 10191209
14:00+18ssw794511 0.0 10181523
17:00+19s58506 0.0 10171495
20:00+14sse3674100 0.0 1017126
10 may, mon
mon1023:00+11sse41276100 0.0 1017273
02:00+9sse410805 0.0 1017181
05:00+8se410810 0.0 1017177
08:00+12se69684 0.0 1016286
11:00+18sse68530 0.0 1015589
14:00+22sse694548 0.0 10151190
17:00+22sse59536 0.0 10141370
20:00+17s37720 0.0 1015215
11 may, tue
tue1123:00+14se35840 0.0 101585
02:00+13se49870 0.0 1014154
05:00+12se511870 0.0 1013204
08:00+15se611760 0.0 1013314
11:00+21sse710570 0.0 1012630
14:00+25sse794946 0.0 10111239
17:00+24se795889 0.0 1010980
20:00+19se61567100 0.0 1010508